This is the latest recevied weather packets stored in our database for station/object 4S6DRJ-13. If no packets are shown the sender has not sent any weather packets the latest 10 day(s).
| Time | Temp. | Humidity | Pressure | Rain* | Wind** | Luminosity | Snow |
|---|---|---|---|---|---|---|---|
| 1787674374 | 27.78° C | 83% | 1011.9 hPa | 0 mm | 0.45 m/s, 239° | 0 W/m² | - |
| 1787674313 | 27.78° C | 83% | 1011.8 hPa | 0 mm | 0.89 m/s, 279° | 0 W/m² | - |
| 1787674252 | 27.78° C | 83% | 1011.6 hPa | 0 mm | 0.89 m/s, 258° | 0 W/m² | - |
| 1787674191 | 27.78° C | 83% | 1011.8 hPa | 0 mm | 0.89 m/s, 177° | 0 W/m² | - |
| 1787674130 | 27.78° C | 83% | 1011.8 hPa | 0 mm | 0.89 m/s, 217° | 0 W/m² | - |
| 1787674069 | 27.78° C | 83% | 1011.8 hPa | 0 mm | 0.89 m/s, 169° | 0 W/m² | - |
| 1787674009 | 27.78° C | 83% | 1011.7 hPa | 0 mm | 1.79 m/s, 231° | 0 W/m² | - |
| 1787673947 | 27.78° C | 83% | 1011.7 hPa | 0 mm | 0.45 m/s, 200° | 0 W/m² | - |
| 1787673886 | 27.78° C | 83% | 1011.5 hPa | 0 mm | 2.24 m/s, 225° | 0 W/m² | - |
| 1787673825 | 27.78° C | 83% | 1011.7 hPa | 0 mm | 1.34 m/s, 214° | 0 W/m² | - |
| 1787673765 | 27.78° C | 83% | 1011.7 hPa | 0 mm | 1.79 m/s, 230° | 0 W/m² | - |
| 1787673704 | 27.78° C | 83% | 1011.5 hPa | 0 mm | 1.34 m/s, 51° | 0 W/m² | - |
| 1787673642 | 27.78° C | 83% | 1011.6 hPa | 0 mm | 1.34 m/s, 31° | 0 W/m² | - |
| 1787673581 | 27.78° C | 83% | 1011.8 hPa | 0 mm | 0.89 m/s, 179° | 0 W/m² | - |
| 1787673521 | 27.78° C | 83% | 1011.7 hPa | 0 mm | 0.89 m/s, 26° | 0 W/m² | - |
| 1787673460 | 27.78° C | 83% | 1011.5 hPa | 0 mm | 0.45 m/s, 228° | 0 W/m² | - |
| 1787673398 | 27.78° C | 83% | 1011.8 hPa | 0 mm | 1.79 m/s, 285° | 0 W/m² | - |
| 1787673337 | 27.78° C | 83% | 1011.7 hPa | 0 mm | 0.89 m/s, 300° | 0 W/m² | - |
| 1787673277 | 27.78° C | 83% | 1011.5 hPa | 0 mm | 1.34 m/s, 272° | 0 W/m² | - |
| 1787673216 | 27.78° C | 83% | 1011.7 hPa | 0 mm | 0.45 m/s, 270° | 0 W/m² | - |
| 1787673154 | 27.78° C | 83% | 1011.6 hPa | 0 mm | 0.45 m/s, 247° | 0 W/m² | - |
| 1787673096 | 27.78° C | 83% | 1011.8 hPa | 0 mm | 0.89 m/s, 261° | 0 W/m² | - |
| 1787673032 | 27.78° C | 83% | 1011.7 hPa | 0 mm | 0.89 m/s, 267° | 0 W/m² | - |
| 1787672971 | 27.78° C | 83% | 1011.6 hPa | 0 mm | 1.34 m/s, 233° | 0 W/m² | - |
| 1787672911 | 27.78° C | 83% | 1011.6 hPa | 0 mm | 1.34 m/s, 281° | 0 W/m² | - |
* Rain latest hour (hover to see other rain measurements)
** Current wind speed in m/s (hover to see current wind gust speed)